Weather History for KGON - December, 2012

Change the Weather History Date:

Saturday, December 8, 2012

  Actual Average Record
Temperature  
Mean Temperature 48 °F -  
Max Temperature 53 °F - - ()
Min Temperature 42 °F - - ()
Degree Days  
Heating Degree Days 18    
Moisture  
Dew Point 45 °F    
Average Humidity 91    
Maximum Humidity 100    
Minimum Humidity 32    
Precipitation  
Precipitation 0.10 in - - ()
Sea Level Pressure  
Sea Level Pressure 29.92 in    
Wind  
Wind Speed 3 mph (NW)    
Max Wind Speed 9 mph    
Max Gust Speed -    
Visibility 4 miles    
Events Rain    
T = Trace of Precipitation, MM = Missing Value Source: NWS Daily Summary

Daily Weather History Graph

Daily Weather History Graph

Search for Another Location

Airport or City:

Trip Planner

Search our weather history database for the weather conditions in past years. The results will help you decide how hot, cold, wet, or windy it might be!

Date:

Astronomy

Dec. 08, 2012 Rise Set
Actual Time 7:01 AM EST 4:18 PM EST
Civil Twilight 6:30 AM EST 4:49 PM EST
Nautical Twilight 5:56 AM EST 5:24 PM EST
Astronomical Twilight 5:22 AM EST 5:58 PM EST
Moon 1:20 AM EST (12/8) 12:49 PM EST (12/8)
Length of Visible Light 10h 19m
Length of Day
9h 16m
Waning Crescent, 28% of the Moon is Illuminated
Dec 8
Waning Crescent
Dec 13
New
Dec 20
First Quarter
Dec 28
Full
Jan 4
Last Quarter

Hourly Weather History & Observations

Time (EST) Temp. Windchill Dew Point Humidity Pressure Visibility Wind Dir Wind Speed Gust Speed Precip Events Conditions
12:13 AM 46.4 °F - 46.4 °F 100% 30.03 in 5.0 mi Calm Calm - N/A   Overcast
12:56 AM 46.9 °F - 46.0 °F 97% 30.03 in 6.0 mi Calm Calm - N/A   Overcast
1:34 AM 46.4 °F - 46.4 °F 100% 30.02 in 2.5 mi Calm Calm - 0.00 in Rain Light Rain
1:45 AM 46.4 °F - 46.4 °F 100% 30.02 in 3.0 mi Calm Calm - 0.00 in Rain Light Rain
1:56 AM 46.9 °F - 46.9 °F 100% 30.02 in 3.0 mi Calm Calm - 0.01 in Rain Light Rain
2:09 AM 46.4 °F - 46.4 °F 100% 30.01 in 2.5 mi Calm Calm - 0.00 in Rain Light Rain
2:29 AM 46.4 °F - 46.4 °F 100% 30.01 in 3.0 mi Calm Calm - 0.01 in Rain Light Rain
2:36 AM 48.2 °F - 46.4 °F 93% 30.01 in 2.5 mi Calm Calm - 0.02 in Rain Rain
2:56 AM 46.9 °F - 45.0 °F 93% 30.01 in 2.0 mi Calm Calm - 0.03 in Rain Rain
3:04 AM 46.4 °F - 46.4 °F 100% 30.00 in 1.8 mi Calm Calm - 0.01 in Rain Rain
3:56 AM 46.9 °F - 46.9 °F 100% 29.99 in 1.0 mi Calm Calm - 0.05 in Rain Light Rain
4:16 AM 46.4 °F 43.5 °F 46.4 °F 100% 29.98 in 3.0 mi East 5.8 mph - 0.00 in Rain Light Rain
4:56 AM 46.9 °F - 46.9 °F 100% 29.96 in 4.0 mi East 3.5 mph - 0.00 in Rain Light Rain
5:56 AM 46.9 °F - 46.9 °F 100% 29.94 in 7.0 mi ENE 5.8 mph - 0.00 in Rain Light Rain
6:56 AM 46.9 °F - 46.9 °F 100% 29.93 in 7.0 mi NNE 6.9 mph - 0.00 in   Overcast
7:17 AM 46.4 °F 43.5 °F 46.4 °F 100% 29.92 in 2.0 mi NNE 5.8 mph - 0.00 in Rain Light Rain
7:27 AM 46.4 °F 43.5 °F 46.4 °F 100% 29.91 in 1.5 mi NNE 5.8 mph - 0.00 in Rain Light Rain
7:42 AM 48.2 °F - 46.4 °F 93% 29.92 in 2.5 mi NNW 8.1 mph - 0.00 in Rain Light Rain
7:56 AM 48.0 °F - 46.9 °F 96% 29.92 in 1.2 mi North 8.1 mph - 0.01 in Rain Light Rain
8:17 AM 48.2 °F - 46.4 °F 93% 29.92 in 1.5 mi NNE 3.5 mph - 0.00 in Rain Light Rain
8:24 AM 48.2 °F - 48.2 °F 100% 29.91 in 1.5 mi NNE 5.8 mph - 0.00 in Rain Light Rain
8:33 AM 48.2 °F - 48.2 °F 100% 29.91 in 1.5 mi NNE 5.8 mph - 0.00 in Rain Light Rain
8:44 AM 48.2 °F - 48.2 °F 100% 29.91 in 3.0 mi NNE 4.6 mph - 0.00 in   Overcast
8:56 AM 48.9 °F - 48.9 °F 100% 29.91 in 2.5 mi North 3.5 mph - 0.00 in   Overcast
9:39 AM 50.0 °F - 48.2 °F 94% 29.90 in 3.0 mi North 5.8 mph - 0.00 in   Overcast
9:56 AM 45.0 °F 43.5 °F 26.1 °F 48% 29.90 in 3.0 mi North 3.5 mph - 0.00 in Rain Light Rain
10:08 AM 50.0 °F - 50.0 °F 100% 29.89 in 2.0 mi North 3.5 mph - 0.00 in   Overcast
10:18 AM 50.0 °F - 50.0 °F 100% 29.88 in 3.0 mi Calm Calm - 0.00 in   Overcast
10:56 AM 50.0 °F - 50.0 °F 100% 29.88 in 3.0 mi North 5.8 mph - 0.00 in   Overcast
11:56 AM 45.0 °F 42.6 °F 26.1 °F 48% 29.86 in 4.0 mi NNW 4.6 mph - N/A   Haze
12:17 PM 42.8 °F 38.6 °F 24.8 °F 49% 29.86 in 2.0 mi NW 6.9 mph - N/A   Haze
12:25 PM 42.8 °F 37.5 °F 24.8 °F 49% 29.86 in 1.0 mi NNW 9.2 mph - N/A   Haze
12:34 PM 44.6 °F 41.4 °F 24.8 °F 46% 29.86 in 0.8 mi NNW 5.8 mph - N/A   Haze
12:56 PM 44.1 °F 41.5 °F 26.1 °F 49% 29.86 in 1.0 mi NNW 4.6 mph - N/A   Haze
1:37 PM 51.8 °F - 51.8 °F 100% 29.85 in 2.0 mi NNW 3.5 mph - N/A   Overcast
1:56 PM 52.0 °F - 51.1 °F 97% 29.85 in 2.0 mi Calm Calm - N/A   Overcast
2:18 PM 51.8 °F - 51.8 °F 100% 29.85 in 3.0 mi Calm Calm - N/A   Overcast
2:33 PM 53.6 °F - 51.8 °F 94% 29.86 in 6.0 mi SW 4.6 mph - N/A   Overcast
2:43 PM 51.8 °F - 51.8 °F 100% 29.86 in 5.0 mi SSW 3.5 mph - N/A   Overcast
2:51 PM 51.8 °F - 50.0 °F 94% 29.86 in 4.0 mi SW 5.8 mph - N/A   Overcast
2:56 PM 52.0 °F - 51.1 °F 97% 29.86 in 4.0 mi WSW 5.8 mph - N/A   Overcast
3:54 PM 50.0 °F - 48.2 °F 94% 29.88 in 5.0 mi SW 8.1 mph - N/A   Overcast
3:56 PM 50.0 °F - 48.9 °F 96% 29.88 in 5.0 mi SW 8.1 mph - N/A   Overcast
4:05 PM 50.0 °F - 48.2 °F 94% 29.88 in 4.0 mi SW 8.1 mph - N/A   Overcast
4:56 PM 48.9 °F - 48.9 °F 100% 29.89 in 5.0 mi WSW 6.9 mph - N/A   Overcast
5:03 PM 48.2 °F - 48.2 °F 100% 29.89 in 5.0 mi SW 5.8 mph - N/A   Overcast
5:52 PM 48.2 °F - 48.2 °F 100% 29.91 in 6.0 mi West 5.8 mph - N/A   Overcast
5:56 PM 48.9 °F - 48.0 °F 97% 29.91 in 6.0 mi WSW 5.8 mph - N/A   Overcast
6:26 PM 48.2 °F - 19.4 °F 32% 29.92 in 7.0 mi WSW 6.9 mph - N/A   Overcast
6:56 PM 48.9 °F - 48.0 °F 97% 29.93 in 6.0 mi West 5.8 mph - N/A   Overcast
7:56 PM 48.2 °F - 48.2 °F 100% 29.94 in 6.0 mi West 4.6 mph - N/A   Overcast
8:56 PM 48.2 °F - 48.2 °F 100% 29.94 in 6.0 mi West 5.8 mph - N/A   Overcast
9:56 PM 48.9 °F - 46.9 °F 93% 29.96 in 5.0 mi West 9.2 mph - N/A   Overcast
10:56 PM 48.9 °F - 48.0 °F 97% 29.97 in 3.0 mi WSW 4.6 mph - N/A   Overcast
11:56 PM 48.9 °F - 48.0 °F 97% 29.99 in 3.0 mi WSW 6.9 mph - N/A   Overcast